Station History

Weather Underground - logo

Station Historical Data
Daily Summary for September 8, 2017 Units:  English    Metric   Both
« Previous Day
Next Day »
Daily Weekly Monthly Yearly Custom
  High: Low: Average:
Temperature: TemperatureF °F 63.8 °F 76.3 °F
Dew Point: DewpointF °F 60.9 °F 63.8 °F
Humidity: Humidity % 41 % 67 %
Wind Speed: WindSpeedMPH mph 0.0 mph 0.8 mph
Wind Gust: WindSpeedGustMPH mph - -
Wind:- - WSW
Pressure: PressureIn in 29.71 in -
Precipitation: 0.00 in    
Historical Graphs
 
 
Tabular Data for September 8, 2017
Time Temperature Dew Point Pressure Wind Wind Speed Wind Gust Humidity Rainfall Rate (Hourly)
TemperatureF °F DewpointF °F PressureIn in Calm     Humidity % HourlyPrecipIn in
00:02 73.9 °F 63.1 °F 29.79 in North 2.3 mph 2.3 mph 69 % 0.00 in
00:07 73.7 °F 62.9 °F 29.79 in NW 2.3 mph 2.3 mph 69 % 0.00 in
00:12 73.5 °F 63.1 °F 29.79 in NW 1.2 mph 1.2 mph 70 % 0.00 in
00:17 73.3 °F 62.9 °F 29.80 in NNW 1.2 mph   70 % 0.00 in
00:22 73.1 °F 63.1 °F 29.80 in NW 3.0 mph 3.0 mph 71 % 0.00 in
00:27 72.9 °F 62.9 °F 29.80 in North 2.3 mph 2.3 mph 71 % 0.00 in
00:32 72.7 °F 63.1 °F 29.80 in WNW 2.0 mph 2.0 mph 72 % 0.00 in
00:37 72.6 °F 63.1 °F 29.80 in NW 3.0 mph 3.0 mph 72 % 0.00 in
00:42 72.4 °F 62.9 °F 29.80 in WNW 3.5 mph 3.5 mph 72 % 0.00 in
00:47 72.3 °F 62.8 °F 29.80 in NW 1.2 mph 1.2 mph 72 % 0.00 in
00:52 72.1 °F 63.0 °F 29.80 in NW 2.3 mph   73 % 0.00 in
00:57 72.0 °F 62.5 °F 29.81 in WNW 2.3 mph 2.3 mph 72 % 0.00 in
01:02 71.9 °F 62.8 °F 29.80 in NW 1.2 mph 1.2 mph 73 % 0.00 in
01:07 71.7 °F 62.6 °F 29.81 in NW 2.3 mph 2.3 mph 73 % 0.00 in
01:12 71.6 °F 62.9 °F 29.81 in Calm     74 % 0.00 in
01:17 71.3 °F 62.6 °F 29.81 in West 1.2 mph 1.2 mph 74 % 0.00 in
01:22 71.1 °F 62.4 °F 29.81 in Calm     74 % 0.00 in
01:27 71.0 °F 62.7 °F 29.81 in Calm     75 % 0.00 in
01:32 70.8 °F 62.5 °F 29.81 in West 1.2 mph 1.2 mph 75 % 0.00 in
01:37 70.6 °F 62.7 °F 29.81 in Calm     76 % 0.00 in
01:42 70.5 °F 62.6 °F 29.81 in Calm     76 % 0.00 in
01:47 70.3 °F 62.4 °F 29.81 in Calm     76 % 0.00 in
01:52 70.2 °F 61.9 °F 29.81 in Calm     75 % 0.00 in
01:57 70.2 °F 62.3 °F 29.81 in Calm     76 % 0.00 in
02:02 70.2 °F 61.9 °F 29.81 in NNW 1.2 mph 1.2 mph 75 % 0.00 in
02:08 70.1 °F 62.2 °F 29.81 in Calm     76 % 0.00 in
02:13 70.0 °F 62.1 °F 29.81 in Calm     76 % 0.00 in
02:18 69.9 °F 62.0 °F 29.81 in Calm     76 % 0.00 in
02:23 69.8 °F 61.9 °F 29.81 in Calm     76 % 0.00 in
02:28 69.7 °F 61.8 °F 29.81 in Calm     76 % 0.00 in
02:33 69.8 °F 61.9 °F 29.81 in Calm     76 % 0.00 in
02:38 69.8 °F 61.9 °F 29.81 in Calm     76 % 0.00 in
02:43 69.7 °F 62.2 °F 29.81 in Calm     77 % 0.00 in
02:48 69.4 °F 61.5 °F 29.81 in Calm     76 % 0.00 in
02:53 69.2 °F 62.0 °F 29.81 in Calm     78 % 0.00 in
02:58 69.1 °F 62.3 °F 29.81 in Calm     79 % 0.00 in
03:03 68.9 °F 62.1 °F 29.81 in Calm     79 % 0.00 in
03:08 68.6 °F 61.8 °F 29.81 in Calm     79 % 0.00 in
03:13 68.5 °F 62.4 °F 29.80 in Calm     81 % 0.00 in
03:18 68.4 °F 62.0 °F 29.80 in Calm     80 % 0.00 in
03:23 68.1 °F 62.0 °F 29.80 in Calm     81 % 0.00 in
03:28 67.9 °F 62.2 °F 29.81 in Calm     82 % 0.00 in
03:33 67.7 °F 62.3 °F 29.81 in Calm     83 % 0.00 in
03:38 67.5 °F 62.2 °F 29.81 in Calm     83 % 0.00 in
03:43 67.3 °F 62.0 °F 29.81 in Calm     83 % 0.00 in
03:48 67.1 °F 61.8 °F 29.81 in Calm     83 % 0.00 in
03:53 67.0 °F 62.0 °F 29.81 in Calm     84 % 0.00 in
03:58 66.9 °F 61.9 °F 29.81 in Calm     84 % 0.00 in
04:03 66.7 °F 61.7 °F 29.81 in Calm     84 % 0.00 in
04:08 66.5 °F 61.2 °F 29.81 in Calm     83 % 0.00 in
04:13 66.4 °F 61.4 °F 29.81 in Calm     84 % 0.00 in
04:18 66.3 °F 61.3 °F 29.81 in Calm     84 % 0.00 in
04:23 66.1 °F 61.1 °F 29.81 in Calm     84 % 0.00 in
04:28 66.0 °F 61.4 °F 29.81 in Calm     85 % 0.00 in
04:33 65.8 °F 61.2 °F 29.81 in Calm     85 % 0.00 in
04:38 65.6 °F 61.3 °F 29.81 in Calm     86 % 0.00 in
04:43 65.6 °F 61.3 °F 29.81 in Calm     86 % 0.00 in
04:48 65.5 °F 61.2 °F 29.81 in Calm     86 % 0.00 in
04:53 65.3 °F 61.3 °F 29.82 in Calm     87 % 0.00 in
04:58 65.2 °F 61.2 °F 29.82 in Calm     87 % 0.00 in
05:03 65.0 °F 61.0 °F 29.82 in Calm     87 % 0.00 in
05:08 64.9 °F 60.9 °F 29.82 in Calm     87 % 0.00 in
05:13 64.8 °F 61.2 °F 29.82 in Calm     88 % 0.00 in
05:18 64.7 °F 61.1 °F 29.82 in Calm     88 % 0.00 in
05:23 64.7 °F 61.1 °F 29.82 in Calm     88 % 0.00 in
05:28 64.6 °F 61.0 °F 29.83 in Calm     88 % 0.00 in
05:33 64.6 °F 61.0 °F 29.83 in Calm     88 % 0.00 in
05:38 64.5 °F 60.9 °F 29.83 in Calm     88 % 0.00 in
05:43 64.4 °F 61.1 °F 29.83 in Calm     89 % 0.00 in
05:48 64.3 °F 61.0 °F 29.82 in Calm     89 % 0.00 in
05:53 64.4 °F 61.1 °F 29.83 in Calm     89 % 0.00 in
05:58 64.5 °F 61.5 °F 29.83 in Calm     90 % 0.00 in
06:03 64.4 °F 61.4 °F 29.83 in Calm     90 % 0.00 in
06:08 64.3 °F 61.3 °F 29.83 in Calm     90 % 0.00 in
06:13 64.3 °F 61.3 °F 29.83 in Calm     90 % 0.00 in
06:18 64.2 °F 61.2 °F 29.83 in Calm     90 % 0.00 in
06:23 64.1 °F 61.1 °F 29.83 in Calm     90 % 0.00 in
06:28 64.1 °F 61.1 °F 29.83 in Calm     90 % 0.00 in
06:33 64.2 °F 61.2 °F 29.83 in Calm     90 % 0.00 in
06:38 64.2 °F 61.2 °F 29.83 in Calm     90 % 0.00 in
06:43 64.0 °F 61.0 °F 29.83 in Calm     90 % 0.00 in
06:48 63.9 °F 60.9 °F 29.84 in Calm     90 % 0.00 in
06:54 63.9 °F 60.9 °F 29.83 in Calm     90 % 0.00 in
06:59 63.8 °F 61.1 °F 29.83 in Calm     91 % 0.00 in
07:04 63.9 °F 61.2 °F 29.83 in Calm     91 % 0.00 in
07:09 64.0 °F 61.3 °F 29.83 in Calm     91 % 0.00 in
07:14 64.2 °F 61.5 °F 29.84 in Calm     91 % 0.00 in
07:19 64.3 °F 61.6 °F 29.84 in Calm     91 % 0.00 in
07:24 64.4 °F 61.7 °F 29.84 in Calm     91 % 0.00 in
07:29 64.6 °F 61.9 °F 29.84 in Calm     91 % 0.00 in
07:34 64.9 °F 62.2 °F 29.84 in Calm     91 % 0.00 in
07:39 65.1 °F 62.1 °F 29.84 in NW 1.2 mph 1.2 mph 90 % 0.00 in
07:44 65.4 °F 62.4 °F 29.84 in Calm     90 % 0.00 in
07:49 65.7 °F 62.4 °F 29.84 in Calm     89 % 0.00 in
07:54 66.1 °F 62.4 °F 29.84 in Calm     88 % 0.00 in
07:59 66.7 °F 62.4 °F 29.84 in Calm     86 % 0.00 in
08:04 67.3 °F 62.6 °F 29.84 in Calm     85 % 0.00 in
08:09 68.0 °F 62.3 °F 29.85 in Calm     82 % 0.00 in
08:14 68.8 °F 62.7 °F 29.85 in Calm     81 % 0.00 in
08:19 69.3 °F 62.5 °F 29.85 in Calm     79 % 0.00 in
08:24 69.8 °F 63.3 °F 29.85 in Calm     80 % 0.00 in
08:29 70.3 °F 63.1 °F 29.85 in Calm     78 % 0.00 in
08:34 70.5 °F 62.9 °F 29.85 in Calm     77 % 0.00 in
08:39 70.9 °F 63.0 °F 29.85 in Calm     76 % 0.00 in
08:44 71.4 °F 63.4 °F 29.85 in Calm     76 % 0.00 in
08:49 71.7 °F 63.7 °F 29.85 in Calm     76 % 0.00 in
08:54 72.3 °F 63.5 °F 29.85 in Calm     74 % 0.00 in
08:59 72.8 °F 64.0 °F 29.85 in NNE 1.0 mph   74 % 0.00 in
09:04 73.3 °F 63.3 °F 29.85 in Calm     71 % 0.00 in
09:09 73.3 °F 63.7 °F 29.85 in SSE 2.3 mph 2.3 mph 72 % 0.00 in
09:14 73.8 °F 64.2 °F 29.86 in South 3.5 mph 3.5 mph 72 % 0.00 in
09:19 74.0 °F 64.0 °F 29.86 in SE 1.2 mph 1.2 mph 71 % 0.00 in
09:24 74.3 °F 64.3 °F 29.86 in East 1.2 mph 1.2 mph 71 % 0.00 in
09:29 74.5 °F 64.1 °F 29.86 in South 3.0 mph 3.0 mph 70 % 0.00 in
09:34 74.7 °F 64.3 °F 29.86 in East 2.0 mph 2.0 mph 70 % 0.00 in
09:39 74.9 °F 64.5 °F 29.86 in SSE 2.3 mph 2.3 mph 70 % 0.00 in
09:44 75.1 °F 64.2 °F 29.86 in SSE 1.2 mph 1.2 mph 69 % 0.00 in
09:49 75.6 °F 64.7 °F 29.86 in Calm     69 % 0.00 in
09:54 75.9 °F 64.6 °F 29.86 in ESE 3.5 mph 3.5 mph 68 % 0.00 in
09:59 76.0 °F 64.7 °F 29.86 in South 2.3 mph 2.3 mph 68 % 0.00 in
10:04 76.3 °F 65.0 °F 29.86 in South 3.5 mph 3.5 mph 68 % 0.00 in
10:09 76.4 °F 65.1 °F 29.86 in South 2.0 mph 2.0 mph 68 % 0.00 in
10:14 77.0 °F 65.2 °F 29.86 in SE 2.3 mph 2.3 mph 67 % 0.00 in
10:19 77.2 °F 65.4 °F 29.86 in SSE 1.2 mph 1.2 mph 67 % 0.00 in
10:24 77.2 °F 65.0 °F 29.86 in ENE 4.0 mph 4.0 mph 66 % 0.00 in
10:29 77.3 °F 65.5 °F 29.86 in East 2.3 mph   67 % 0.00 in
10:34 77.9 °F 65.6 °F 29.86 in ESE 1.2 mph 1.2 mph 66 % 0.00 in
10:39 78.1 °F 65.8 °F 29.86 in South 2.3 mph 2.3 mph 66 % 0.00 in
10:44 78.5 °F 65.3 °F 29.86 in SE 2.3 mph 2.3 mph 64 % 0.00 in
10:49 78.7 °F 65.5 °F 29.86 in SW 3.5 mph 3.5 mph 64 % 0.00 in
10:54 78.9 °F 65.7 °F 29.85 in SSW 2.0 mph 2.0 mph 64 % 0.00 in
10:59 79.4 °F 66.6 °F 29.85 in East 1.2 mph   65 % 0.00 in
11:04 79.2 °F 65.1 °F 29.85 in SSW 1.2 mph 1.2 mph 62 % 0.00 in
11:09 79.2 °F 65.5 °F 29.85 in ESE 2.3 mph 2.3 mph 63 % 0.00 in
11:14 79.6 °F 65.4 °F 29.85 in NNW 1.2 mph 1.2 mph 62 % 0.00 in
11:19 79.8 °F 65.2 °F 29.85 in NW 2.0 mph 2.0 mph 61 % 0.00 in
11:24 79.9 °F 65.2 °F 29.84 in NW 2.0 mph 2.0 mph 61 % 0.00 in
11:29 80.1 °F 65.9 °F 29.84 in SW 1.2 mph 1.2 mph 62 % 0.00 in
11:34 80.7 °F 66.9 °F 29.84 in Calm     63 % 0.00 in
11:39 80.8 °F 66.1 °F 29.84 in NW 1.2 mph   61 % 0.00 in
11:44 81.0 °F 65.3 °F 29.84 in NNE 2.3 mph 2.3 mph 59 % 0.00 in
11:49 81.5 °F 66.3 °F 29.83 in East 2.3 mph 2.3 mph 60 % 0.00 in
11:54 81.8 °F 65.6 °F 29.83 in SW 3.5 mph 3.5 mph 58 % 0.00 in
11:59 82.2 °F 66.0 °F 29.83 in WNW 2.3 mph 2.3 mph 58 % 0.00 in
12:04 82.7 °F 66.4 °F 29.83 in NNE 2.3 mph 2.3 mph 58 % 0.00 in
12:09 82.8 °F 67.0 °F 29.83 in SE 1.2 mph 1.2 mph 59 % 0.00 in
12:14 83.2 °F 65.4 °F 29.83 in NW 2.3 mph 2.3 mph 55 % 0.00 in
12:19 82.6 °F 65.3 °F 29.83 in NW 2.3 mph 2.3 mph 56 % 0.00 in
12:25 82.9 °F 66.6 °F 29.83 in NW 1.2 mph 1.2 mph 58 % 0.00 in
12:30 83.3 °F 66.0 °F 29.83 in NW 1.2 mph 1.2 mph 56 % 0.00 in
12:35 83.0 °F 66.2 °F 29.83 in WNW 1.2 mph 1.2 mph 57 % 0.00 in
12:40 83.8 °F 66.9 °F 29.82 in ESE 2.3 mph 2.3 mph 57 % 0.00 in
12:45 84.5 °F 66.0 °F 29.82 in NW 2.3 mph 2.3 mph 54 % 0.00 in
12:50 84.3 °F 65.3 °F 29.82 in Calm     53 % 0.00 in
12:55 84.0 °F 65.6 °F 29.82 in West 2.3 mph 2.3 mph 54 % 0.00 in
13:00 84.1 °F 66.2 °F 29.82 in NNW 2.3 mph 2.3 mph 55 % 0.00 in
13:05 84.3 °F 65.8 °F 29.81 in NW 2.0 mph 2.0 mph 54 % 0.00 in
13:10 84.8 °F 66.3 °F 29.81 in NW 2.3 mph 2.3 mph 54 % 0.00 in
13:15 85.0 °F 67.5 °F 29.81 in Calm     56 % 0.00 in
13:20 85.7 °F 67.1 °F 29.81 in NW 1.2 mph 1.2 mph 54 % 0.00 in
13:25 85.8 °F 66.1 °F 29.81 in WNW 1.2 mph 1.2 mph 52 % 0.00 in
13:30 86.1 °F 67.0 °F 29.81 in WNW 2.3 mph 2.3 mph 53 % 0.00 in
13:35 85.7 °F 67.7 °F 29.80 in Calm     55 % 0.00 in
13:40 86.4 °F 67.2 °F 29.80 in WNW 2.0 mph 2.0 mph 53 % 0.00 in
13:45 86.5 °F 65.7 °F 29.80 in Calm     50 % 0.00 in
13:50 87.2 °F 66.9 °F 29.80 in ESE 1.2 mph 1.2 mph 51 % 0.00 in
13:55 87.8 °F 68.0 °F 29.79 in Calm     52 % 0.00 in
14:00 88.0 °F 67.0 °F 29.79 in Calm     50 % 0.00 in
14:05 88.0 °F 67.6 °F 29.79 in Calm     51 % 0.00 in
14:10 88.7 °F 67.7 °F 29.79 in Calm     50 % 0.00 in
14:29 88.5 °F 66.9 °F 29.77 in NW 3.0 mph 3.0 mph 49 % 0.00 in
14:34 88.6 °F 67.0 °F 29.77 in NW 3.5 mph 3.5 mph 49 % 0.00 in
14:39 88.8 °F 66.0 °F 29.77 in North 3.5 mph 3.5 mph 47 % 0.00 in
14:44 88.9 °F 65.4 °F 29.77 in West 2.3 mph 2.3 mph 46 % 0.00 in
14:49 89.0 °F 66.8 °F 29.76 in North 1.2 mph 1.2 mph 48 % 0.00 in
14:54 89.5 °F 66.6 °F 29.76 in SW 2.3 mph 2.3 mph 47 % 0.00 in
14:59 89.5 °F 66.0 °F 29.76 in WNW 2.3 mph 2.3 mph 46 % 0.00 in
15:04 89.5 °F 67.2 °F 29.75 in NE 1.0 mph   48 % 0.00 in
15:09 89.5 °F 66.6 °F 29.75 in North 4.0 mph 4.0 mph 47 % 0.00 in
15:14 89.3 °F 66.4 °F 29.75 in NW 3.5 mph 3.5 mph 47 % 0.00 in
15:19 89.0 °F 64.9 °F 29.75 in NW 3.5 mph 3.5 mph 45 % 0.00 in
15:24 89.3 °F 64.5 °F 29.75 in North 2.0 mph 2.0 mph 44 % 0.00 in
15:29 89.4 °F 65.9 °F 29.75 in NW 2.0 mph 2.0 mph 46 % 0.00 in
15:34 89.3 °F 65.8 °F 29.75 in NW 3.5 mph 3.5 mph 46 % 0.00 in
15:39 89.4 °F 65.9 °F 29.74 in NNW 1.2 mph 1.2 mph 46 % 0.00 in
15:44 89.6 °F 66.7 °F 29.74 in NE 3.5 mph 3.5 mph 47 % 0.00 in
15:49 90.0 °F 67.1 °F 29.74 in NW 1.2 mph 1.3 mph 47 % 0.00 in
15:54 89.9 °F 65.7 °F 29.74 in NW 3.5 mph 3.5 mph 45 % 0.00 in
15:59 89.6 °F 65.4 °F 29.73 in NW 2.0 mph 2.0 mph 45 % 0.00 in
16:04 89.8 °F 65.6 °F 29.73 in NW 1.2 mph 1.2 mph 45 % 0.00 in
16:09 90.0 °F 65.8 °F 29.73 in Calm   0.1 mph 45 % 0.00 in
16:14 90.1 °F 65.2 °F 29.73 in NW 3.0 mph 3.0 mph 44 % 0.00 in
16:19 90.0 °F 65.2 °F 29.73 in NW 1.2 mph   44 % 0.00 in
16:24 90.0 °F 65.2 °F 29.73 in NW 2.3 mph 2.3 mph 44 % 0.00 in
16:29 89.8 °F 65.0 °F 29.73 in NW 2.3 mph   44 % 0.00 in
16:34 90.2 °F 65.3 °F 29.72 in South 1.2 mph   44 % 0.00 in
16:40 90.2 °F 64.7 °F 29.72 in West 3.5 mph 3.5 mph 43 % 0.00 in
16:50 89.9 °F 65.1 °F 29.72 in West 1.2 mph 1.2 mph 44 % 0.00 in
16:55 89.9 °F 65.1 °F 29.72 in NW 3.5 mph 3.5 mph 44 % 0.00 in
16:56 89.9 °F 65.1 °F 29.72 in NNW 2.3 mph 2.3 mph 44 % 0.00 in
17:01 90.1 °F 64.6 °F 29.72 in Calm     43 % 0.00 in
17:06 90.4 °F 64.9 °F 29.72 in WNW 1.2 mph 1.2 mph 43 % 0.00 in
17:11 90.3 °F 64.8 °F 29.72 in NNW 3.5 mph 3.5 mph 43 % 0.00 in
17:16 90.1 °F 64.6 °F 29.72 in West 1.2 mph 1.2 mph 43 % 0.00 in
17:21 90.2 °F 64.0 °F 29.72 in NW 1.2 mph 1.2 mph 42 % 0.00 in
17:26 90.1 °F 63.9 °F 29.71 in NNW 1.0 mph   42 % 0.00 in
17:31 90.2 °F 63.3 °F 29.72 in NW 1.2 mph 1.2 mph 41 % 0.00 in
17:36 90.4 °F 64.9 °F 29.72 in WNW 1.2 mph   43 % 0.00 in
17:41 90.3 °F 63.4 °F 29.72 in WNW 2.3 mph 2.3 mph 41 % 0.00 in
17:46 90.1 °F 63.9 °F 29.72 in NW 1.2 mph   42 % 0.00 in
17:51 89.9 °F 63.7 °F 29.72 in Calm     42 % 0.00 in
17:56 89.9 °F 65.1 °F 29.72 in Calm     44 % 0.00 in
18:01 89.3 °F 63.9 °F 29.72 in NW 2.3 mph   43 % 0.00 in
18:06 88.8 °F 64.1 °F 29.72 in Calm     44 % 0.00 in
18:11 88.4 °F 64.4 °F 29.72 in NNE 1.2 mph 1.2 mph 45 % 0.00 in
18:16 88.0 °F 64.0 °F 29.72 in WNW 1.2 mph   45 % 0.00 in
18:21 87.6 °F 64.3 °F 29.72 in Calm     46 % 0.00 in
18:22 87.5 °F 64.2 °F 29.72 in Calm     46 % 0.00 in
18:27 87.2 °F 64.5 °F 29.72 in Calm     47 % 0.00 in
18:32 86.8 °F 64.2 °F 29.72 in Calm     47 % 0.00 in
18:37 86.5 °F 64.5 °F 29.72 in Calm     48 % 0.00 in
18:42 86.2 °F 64.2 °F 29.72 in Calm     48 % 0.00 in
18:47 86.0 °F 64.0 °F 29.72 in Calm     48 % 0.00 in
18:52 85.7 °F 64.3 °F 29.72 in Calm     49 % 0.00 in
18:57 85.5 °F 64.7 °F 29.72 in Calm     50 % 0.00 in
19:02 85.2 °F 64.5 °F 29.72 in Calm     50 % 0.00 in
19:07 84.8 °F 64.1 °F 29.72 in Calm     50 % 0.00 in
19:12 84.5 °F 64.4 °F 29.72 in Calm     51 % 0.00 in
19:17 84.3 °F 64.2 °F 29.72 in Calm     51 % 0.00 in
19:22 84.0 °F 63.9 °F 29.72 in Calm     51 % 0.00 in
19:27 83.7 °F 64.8 °F 29.72 in Calm     53 % 0.00 in
19:32 83.0 °F 64.6 °F 29.73 in Calm     54 % 0.00 in
19:37 82.3 °F 64.5 °F 29.73 in Calm     55 % 0.00 in
19:42 81.6 °F 64.9 °F 29.73 in Calm     57 % 0.00 in
19:47 80.8 °F 64.6 °F 29.73 in Calm     58 % 0.00 in
19:52 80.3 °F 66.1 °F 29.74 in Calm     62 % 0.00 in
19:57 79.8 °F 66.1 °F 29.74 in Calm     63 % 0.00 in
20:02 79.3 °F 66.1 °F 29.74 in Calm     64 % 0.00 in
20:07 79.0 °F 65.8 °F 29.74 in Calm     64 % 0.00 in
20:12 78.7 °F 66.8 °F 29.74 in Calm     67 % 0.00 in
20:17 78.3 °F 66.0 °F 29.74 in Calm     66 % 0.00 in
20:19 78.1 °F 65.4 °F 29.74 in Calm     65 % 0.00 in
20:21 78.0 °F 64.8 °F 29.75 in Calm     64 % 0.00 in
20:26 77.5 °F 64.8 °F 29.75 in Calm     65 % 0.00 in
20:31 77.2 °F 64.5 °F 29.75 in Calm     65 % 0.00 in
20:36 77.0 °F 64.8 °F 29.75 in Calm     66 % 0.00 in
20:41 76.7 °F 64.5 °F 29.76 in Calm     66 % 0.00 in
20:46 76.3 °F 64.5 °F 29.76 in Calm     67 % 0.00 in
20:51 76.0 °F 64.7 °F 29.76 in Calm     68 % 0.00 in
20:56 75.7 °F 65.2 °F 29.76 in Calm     70 % 0.00 in
21:01 75.5 °F 65.0 °F 29.77 in Calm     70 % 0.00 in
21:06 75.4 °F 65.3 °F 29.77 in Calm     71 % 0.00 in
21:11 75.3 °F 65.2 °F 29.77 in Calm     71 % 0.00 in
21:16 75.1 °F 65.1 °F 29.77 in Calm     71 % 0.00 in
21:21 75.1 °F 65.5 °F 29.77 in Calm     72 % 0.00 in
21:26 75.2 °F 65.6 °F 29.77 in Calm     72 % 0.00 in
21:31 75.2 °F 65.6 °F 29.77 in Calm     72 % 0.00 in
21:36 75.0 °F 65.4 °F 29.78 in Calm     72 % 0.00 in
21:41 75.0 °F 64.5 °F 29.78 in ESE 1.2 mph   70 % 0.00 in
21:46 75.1 °F 64.6 °F 29.78 in Calm     70 % 0.00 in
21:51 75.0 °F 64.5 °F 29.78 in Calm     70 % 0.00 in
21:56 74.8 °F 64.4 °F 29.78 in Calm     70 % 0.00 in
22:01 74.4 °F 64.4 °F 29.78 in Calm     71 % 0.00 in
22:06 73.9 °F 64.3 °F 29.78 in Calm     72 % 0.00 in
22:11 73.5 °F 64.3 °F 29.78 in Calm     73 % 0.00 in
22:16 73.3 °F 64.5 °F 29.79 in Calm     74 % 0.00 in
22:17 73.3 °F 64.5 °F 29.79 in Calm     74 % 0.00 in
22:22 73.1 °F 64.3 °F 29.79 in Calm     74 % 0.00 in
22:27 73.0 °F 64.2 °F 29.79 in Calm     74 % 0.00 in
22:32 72.9 °F 64.5 °F 29.79 in Calm     75 % 0.00 in
22:37 72.8 °F 64.0 °F 29.80 in Calm     74 % 0.00 in
22:42 72.8 °F 64.4 °F 29.80 in Calm     75 % 0.00 in
22:47 72.6 °F 64.2 °F 29.80 in Calm     75 % 0.00 in
22:52 72.5 °F 64.5 °F 29.80 in Calm     76 % 0.00 in
22:57 72.4 °F 64.4 °F 29.80 in Calm     76 % 0.00 in
23:02 72.4 °F 64.0 °F 29.80 in Calm     75 % 0.00 in
23:07 72.4 °F 64.0 °F 29.81 in Calm     75 % 0.00 in
23:12 72.3 °F 64.3 °F 29.81 in Calm     76 % 0.00 in
23:17 72.1 °F 64.1 °F 29.81 in Calm     76 % 0.00 in
23:22 72.2 °F 64.2 °F 29.81 in Calm     76 % 0.00 in
23:27 72.2 °F 64.2 °F 29.81 in Calm     76 % 0.00 in
23:32 72.1 °F 63.7 °F 29.81 in Calm     75 % 0.00 in
23:37 72.1 °F 64.1 °F 29.81 in Calm     76 % 0.00 in
23:42 72.1 °F 64.1 °F 29.81 in Calm     76 % 0.00 in
23:47 72.1 °F 63.7 °F 29.81 in Calm     75 % 0.00 in
23:52 72.0 °F 64.0 °F 29.81 in Calm     76 % 0.00 in
23:57 71.8 °F 63.8 °F 29.82 in Calm     76 % 0.00 in
Park Place, Exeter, Tulare County, California, USA
Compliments of Weather Underground - 2.75 mb